Home   Weather   Imst   Past weeks

Flag for Austria Past Weather in Imst, Tyrol, Austria — Yesterday and Last 2 Weeks

Now
62 °F

Cool.


Feels Like: 62 °F
Forecast: 55 / 71 °F
Wind: 1 mph from South

Location: Landeck

Current Time: Aug 31, 2016 at 11:55:48 PM

Latest Report: Aug 31, 2016 at 11:00 PM


Visibility: N/A

Pressure: 30.17 "Hg (27.47 "Hg at 797m altitude)

Humidity: 90%

Dew Point: 59 °F

Location of ImstLocation

Past Weather in Imst — Graph

°F

Imst Temperature Yesterday

Maximum temperature yesterday: 78 °F (at 4:00 PM)
Minimum temperature yesterday: 60 °F (at 6:00 AM)
Average temperature yesterday: 66 °F

High & Low Weather Summary for the Past Weeks

 TemperatureHumidityPressure
High90 °F (Aug 26, 3:00 PM)94% (Aug 20, 10:00 PM)30.50 "Hg (Aug 20, 10:00 PM)
Low49 °F (Aug 23, 6:00 AM)25% (Aug 25, 4:00 PM)29.72 "Hg (Aug 18, 4:00 PM)
Average67 °F70%30.07 "Hg
* Reported Aug 16 10:00 PM — Aug 31 10:00 PM, Imst, Weather by CustomWeather, © 2016

Note: Actual official high and low records may vary slightly from our data, if they occured in-between our weather recording intervals... More about our weather records

Advertising

Imst Weather History for the Previous 24 Hours

Scroll right to see more
 ConditionsComfort  
Time TempWeatherWind HumidityBarometerVisibility
10:00 PM
Wed, Aug 31
62 °FCool.2 mph90%30.17 "HgN/A
9:00 PM63 °FMild.2 mph89%30.16 "HgN/A
8:00 PM63 °FMild.2 mph89%30.13 "HgN/A
7:00 PM64 °FFog.5 mph88%30.09 "HgN/A
6:00 PM78 °FWarm.3 mph43%29.98 "HgN/A
5:00 PMN/APassing clouds.17 mphN/AN/A14 mi
4:00 PM83 °FPleasantly warm.2 mph40%29.94 "HgN/A
3:00 PM80 °FPleasantly warm.2 mph39%29.96 "HgN/A
2:00 PM82 °FWarm.3 mph42%29.97 "HgN/A
1:00 PM78 °FWarm.1 mph46%30.01 "HgN/A
12:00 PM75 °FMild.2 mph48%30.04 "HgN/A
11:00 AM72 °FMild.3 mph56%30.08 "HgN/A
10:00 AM67 °FMild.3 mph63%30.12 "HgN/A
9:00 AM64 °FMild.5 mph70%30.16 "HgN/A
8:00 AM60 °FCool.3 mph80%30.18 "HgN/A
7:00 AM60 °FCool.5 mph80%30.18 "HgN/A
6:00 AM60 °FCool.3 mph80%30.17 "HgN/A
5:00 AM60 °FCool.3 mph82%30.17 "HgN/A
4:00 AM62 °FCool.3 mph83%30.17 "HgN/A
3:00 AM61 °FCool.2 mph86%30.16 "HgN/A
2:00 AM61 °FCool.2 mph87%30.17 "HgN/A
1:00 AM63 °FMild.2 mph84%30.17 "HgN/A
12:00 AM63 °FMild.1 mph83%30.16 "HgN/A
11:00 PM
Tue, Aug 30
64 °FPassing clouds.2 mph80%30.15 "Hg2 mi
Weather by CustomWeather, © 2016

See weather overviewHow to use our weather pages